Location: Unspecified
(48.5539°N, 71.6350°W)
Time: 01:19:35
(UTC-05:00)

ISS - All Passes

Search period start: 12 December 2017 00:00
Search period end: 22 December 2017 00:00
Orbit: 403 x 407 km, 51.6° (Epoch: 12 December)

Date Brightness Start Highest point End Pass type
(mag) Time Alt. Az. Time Alt. Az. Time Alt. Az.
12 Dec - 12:42:23 10° SW 12:45:27 37° SSE 12:48:32 10° ENE daylight
12 Dec - 14:18:36 10° W 14:21:52 61° NNW 14:25:09 10° ENE daylight
12 Dec - 15:55:26 10° WNW 15:58:39 49° N 16:01:52 10° E daylight
12 Dec - 17:31:58 10° WNW 17:35:16 70° SSW 17:38:31 10° ESE visible
12 Dec - 19:09:23 10° WSW 19:11:16 14° SW 19:13:09 10° S visible
13 Dec - 11:50:43 10° SSW 11:53:24 23° SE 11:56:05 10° E daylight
13 Dec - 13:26:19 10° WSW 13:29:37 81° NNW 13:32:55 10° ENE daylight
13 Dec - 15:03:07 10° WNW 15:06:20 46° N 15:09:32 10° ENE daylight
13 Dec - 16:39:44 10° WNW 16:43:03 81° NNE 16:46:20 10° ESE visible
13 Dec - 18:16:34 10° W 18:19:16 23° SW 18:21:57 10° SSE visible
14 Dec - 10:59:31 10° S 11:01:23 14° SE 11:03:15 10° ESE daylight
14 Dec - 12:34:07 10° WSW 12:37:23 70° SSE 12:40:41 10° ENE daylight
14 Dec - 14:10:47 10° W 14:14:00 49° N 14:17:14 10° ENE daylight
14 Dec - 15:47:30 10° WNW 15:50:46 61° NNE 15:54:02 10° E daylight
14 Dec - 17:24:06 10° WNW 17:27:11 38° SSW 17:30:15 10° SE visible
15 Dec - 11:42:04 10° SW 11:45:13 44° SSE 11:48:23 10° ENE daylight
15 Dec - 13:18:25 10° W 13:21:40 57° NNW 13:24:56 10° ENE daylight
15 Dec - 14:55:14 10° WNW 14:58:28 51° N 15:01:41 10° E daylight
15 Dec - 16:31:46 10° WNW 16:35:01 60° SSW 16:38:16 10° SE visible
15 Dec - 18:09:37 10° WSW 18:10:57 12° SW 18:12:18 10° SSW visible
16 Dec - 10:50:14 10° SSW 10:53:05 27° SE 10:55:57 10° E daylight
16 Dec - 12:26:04 10° WSW 12:29:22 73° NNW 12:32:40 10° ENE daylight
16 Dec - 14:02:54 10° WNW 14:06:06 47° N 14:09:19 10° ENE daylight
16 Dec - 15:39:29 10° WNW 15:42:48 90° SW 15:46:05 10° ESE daylight
16 Dec - 17:16:28 10° W 17:18:56 20° SW 17:21:25 10° S visible
17 Dec - 09:58:47 10° S 10:01:01 17° SE 10:03:15 10° E daylight
17 Dec - 11:33:48 10° WSW 11:37:05 80° SSE 11:40:24 10° ENE daylight
17 Dec - 13:10:32 10° W 13:13:45 47° N 13:16:57 10° ENE daylight
17 Dec - 14:47:13 10° WNW 14:50:30 67° NNE 14:53:46 10° E daylight
17 Dec - 16:23:52 10° W 16:26:51 32° SW 16:29:48 10° SSE visible
18 Dec - 09:08:44 10° SE 09:09:00 10° SE 09:09:16 10° SE daylight
18 Dec - 10:41:39 10° SW 10:44:51 52° SSE 10:48:05 10° ENE daylight
18 Dec - 12:18:08 10° W 12:21:22 53° N 12:24:37 10° ENE daylight
18 Dec - 13:54:55 10° WNW 13:58:10 53° N 14:01:24 10° E daylight
18 Dec - 15:31:27 10° WNW 15:34:40 51° SSW 15:37:52 10° SE daylight
19 Dec - 09:49:41 10° SSW 09:52:40 32° SE 09:55:40 10° E daylight
19 Dec - 11:25:44 10° W 11:29:01 66° NNW 11:32:18 10° ENE daylight
19 Dec - 13:02:34 10° WNW 13:05:47 47° N 13:08:59 10° E daylight
19 Dec - 14:39:07 10° WNW 14:42:25 79° SSW 14:45:43 10° ESE daylight
19 Dec - 16:16:17 10° W 16:18:29 17° SW 16:20:41 10° S daylight
20 Dec - 08:58:03 10° S 09:00:32 20° SE 09:03:03 10° E daylight
20 Dec - 10:33:23 10° WSW 10:36:41 89° NNW 10:40:00 10° ENE daylight
20 Dec - 12:10:10 10° WNW 12:13:22 46° N 12:16:35 10° ENE daylight
20 Dec - 13:46:49 10° WNW 13:50:06 74° NNE 13:53:24 10° ESE daylight
20 Dec - 15:23:32 10° W 15:26:23 27° SW 15:29:13 10° SSE daylight
21 Dec - 08:07:03 10° SSE 08:08:28 12° SE 08:09:52 10° ESE daylight
21 Dec - 09:41:08 10° SW 09:44:24 61° SSE 09:47:39 10° ENE daylight
21 Dec - 11:17:44 10° W 11:20:57 50° N 11:24:11 10° ENE daylight
21 Dec - 12:54:29 10° WNW 12:57:44 57° NNE 13:01:00 10° E daylight
21 Dec - 14:31:02 10° WNW 14:34:11 43° SSW 14:37:20 10° SE daylight
